www.pogodaiklimat.ru

Погода и климат >> Архив погоды >> Пакистан >> Лахор аэропорт


ПОГОДА в Лахор аэропорту

  • Прогноз погоды в Лахор аэропорту
  • Монитор погоды в Лахор аэропорту

АРХИВ ПОГОДЫ в Лахор аэропорту

Время (UTC), дата Ветер
(напр.,м/с)
 
Видим.   Явления Облачность Т
(С)
Тd
(С)
f
(%)
Тe
(С)
Тes
(С)
Комфортность P
(гПа)
Po
(гПа)
Тmin
(С)
Tmax
(С)
R
(мм)
R24
(мм)
S
(см)
21 15.08 ЮВ 3 4000 м дым 3/0
[Ac trans]
+28.0 +25.2 85 +41 +41 опасность
перегрева
1001.4 977.2
00 16.08 ЮВ 3 4000 м дым 8/4 1200 м
[Sc diur, vesp Ac As]
+28.0 +25.2 85 +41 +41 опасность
перегрева
1001.2 977.0
03 16.08 ЮВ 3 4000 м дым 8/4 1200 м
[Sc diur, vesp Ac As]
+28.5 +25.0 81 +41 +43 опасность
перегрева
1001.8 977.6 +27.6
06 16.08 ЮВ 3 4000 м дым 8/4 1200 м
[Sc diur, vesp Ac As]
+33.0 +26.1 67 +49 +54 опасность
перегрева
1000.9 977.1
09 16.08 СЗ 4 4000 м в посл. час гроза {дождь} 9/5 1200 м
[Sc diur, vesp Ac As]
+29.0 +26.2 85 +44 +46 опасность
перегрева
1000.1 976.0 7
12 16.08 ЮВ 4 4000 м дым {гроза, дождь} 8/5 1200 м
[Sc diur, vesp Ac As]
+26.0 +23.1 84 +35 +35 очень
душно
998.8 974.5 +33.0 3
15 16.08 СВ 2 4000 м дым 6/5 1200 м
[Sc diur, vesp Ac As]
+26.5 +23.6 84 +36 +36 очень
душно
999.7 975.4
18 16.08 СВ 3 4000 м дым 6/3 1200 м
[Sc diur, vesp Ac trans]
+25.0 +21.3 80 +32 +32 очень
душно
1000.0 975.5
21 16.08 СВ 2 4000 м дым 9/4 1200 м
[Sc diur, vesp Ac As]
+25.0 +21.3 80 +32 +32 очень
душно
999.0 974.6
00 17.08 В 3 4000 м дым 9/5 1200 м
[Sc diur, vesp Ac As]
+24.0 +21.0 83 +30 +30 очень
душно
999.2 974.7
03 17.08 В 2 4000 м дым 8/4 1200 м
[Sc diur, vesp Ac As]
+27.5 +23.9 81 +38 +40 очень
душно
1000.8 976.5 +23.0
06 17.08 В 5 4000 м дым {дождь} 8/4 1200 м
[Sc diur, vesp Ac As]
+28.0 +25.2 85 +41 +44 опасность
перегрева
1002.2 977.9 1
09 17.08 В 9 4000 м в посл. час дождь 9/4 1200 м
[Sc diur, vesp Ac As]
+26.5 +23.8 85 +36 +37 очень
душно
1001.1 976.7 1
12 17.08 ЮВ 2 4000 м дым 6/5 1200 м
[Sc diur, vesp Ac As]
+26.5 +22.9 81 +35 +36 очень
душно
1000.8 976.4 +29.0
15 17.08 СВ 3 4000 м дым 5/3 1200 м
[Cb calv Ac As]
+26.5 +22.1 77 +34 +34 очень
душно
1001.5 977.1
18 17.08 СВ 4 4000 м дым 6/4 1200 м
[Sc diur, vesp Ac As]
+25.0 +22.0 83
21 17.08 С 2 4000 м дым 8/4 1200 м
[Sc diur, vesp Ac As]
+23.5 +21.2 87 +30 +30 очень
душно
1001.3 976.7
00 18.08 СЗ 2 4000 м дым 5/0
[Ac trans]
+22.5 +20.2 87 +29 +29 очень
душно
1001.3 976.6
03 18.08 С 2 4000 м дым {метель} 4/0 1000 м
[Ac trans Ci fib]
+27.0 +22.0 74 +35 +40 очень
душно
1002.7 978.3 +22.0
06 18.08 штиль 0 4000 м дым 8/5 1200 м
[Sc diur, vesp Ac trans]
+30.0 +22.8 65 +40 +48 очень
душно
1003.4 979.3
09 18.08 СЗ 2 4000 м дым 5/4 1200 м
[Sc diur, vesp Ac trans]
+34.0 +22.5 51 +43 +52 опасность
перегрева
1002.0 978.2
12 18.08 В 3 4000 м дым 6/3 1200 м
[Sc diur, vesp Ac As]
+33.0 +23.0 56 +43 +44 опасность
перегрева
1001.4 977.5 +35.2
18 18.08 ЮВ 2 4000 м дым ясно +27.5 +22.4 74 +36 +36 очень
душно
1004.3 979.9
21 18.08 ЮВ 3 4000 м дым 4/0
[Ac trans]
+26.5 +22.1 77 +34 +34 очень
душно
1005.2 980.7
00 19.08 Ю 2 4000 м дым 8/5 1200 м
[Sc diur, vesp Ac As]
+25.0 +22.0 83 +32 +32 очень
душно
1005.5 980.9
03 19.08 СВ 7 4000 м дым 9/5 1200 м
[Cb calv Ac As]
+25.0 +21.3 80 +32 +32 очень
душно
1006.6 982.0 +24.2
06 19.08 ЮВ 3 4000 м дым 4/0
[Ac trans]
+29.5 +20.5 58 +36 +48 очень
душно
1005.4 981.2
09 19.08 СВ 3 4000 м дым 3/0
[Ac trans]
+33.5 +21.9 51 +42 +53 опасность
перегрева
1005.6 981.7
12 19.08 СВ 2 4000 м мгла 4/4 1200 м
[Sc diur, vesp]
+35.0 +22.9 50 +45 +47 опасность
перегрева
1003.8 980.0 +36.3
15 19.08 СВ 3 4000 м дым 3/0
[Ac trans]
+30.0 +22.8 65 +40 +40 очень
душно
1004.0 979.8
18 19.08 ЮВ 2 4000 м дым 3/0
[Ac trans]
+29.0 +23.2 71 +39 +39 очень
душно
1005.6 981.3
21 19.08 штиль 0 4000 м дым 3/0
[Ac trans]
+28.0 +22.1 70 +36 +36 очень
душно
1005.2 980.9
00 20.08 штиль 0 4000 м дым 3/0
[Ac trans]
+26.5 +22.9 81 +35 +35 очень
душно
1005.0 980.5
03 20.08 штиль 0 4000 м дым 3/3 1200 м
[Sc]
+28.5 +24.2 78 +40 +45 очень
душно
1006.2 981.9 +24.8
06 20.08 СЗ 3 4000 м дым 6/4 1200 м
[Sc diur, vesp Ac As]
+34.0 +22.5 51 +43 +51 опасность
перегрева
1005.6 981.7
09 20.08 СЗ 4 4000 м мгла 6/3 1200 м
[Sc diur, vesp Ac As]
+37.0 +22.6 44 +46 +51 опасность
перегрева
1003.9 980.3
12 20.08 СЗ 4 4000 м мгла 3/0
[Ac trans]
+36.0 +23.2 48 +46 +48 опасность
перегрева
1001.7 978.1 +37.8
15 20.08 СЗ 2 4000 м дым 3/0
[Ac trans]
+31.5 +23.6 63 +43 +43 опасность
перегрева
1002.1 978.1
18 20.08 ЮВ 2 4000 м дым ясно +29.5 +24.5 75 +42 +42 опасность
перегрева
1002.7 978.5
21 20.08 ЮЗ 3 4000 м дым ясно +28.0 +22.9 74 +37 +37 очень
душно
1002.4 978.1
00 21.08 ЮВ 2 4000 м дым ясно +27.5 +23.9 81 +38 +38 очень
душно
1002.1 977.8
03 21.08 З 2 2000 м дым ясно +29.5 +25.3 78 +43 +49 опасность
перегрева
1003.0 978.8 +27.2
06 21.08 С 2 4000 м дым ясно +34.0 +23.3 54 +45 +63 опасность
перегрева
1003.0 979.2
09 21.08 З 3 4000 м мгла 6/5 1200 м
[Sc diur, vesp Ac trans]
+37.0 +22.8 44 +46 +52 опасность
перегрева
1001.8 978.2
12 21.08 В 3 4000 м дым 8/5 1200 м
[Sc diur, vesp Ac As]
+36.0 +23.2 48 +46 +47 опасность
перегрева
1000.7 977.1 +38.2
15 21.08 ЮЗ 3 4000 м дым 5/3 1200 м
[Cb calv Ac As]
+33.0 +22.1 53 +42 +42 опасность
перегрева
1000.9 977.1
18 21.08 Ю 2 4000 м дым 4/0
[Ac trans]
+30.5 +22.5 62 +40 +40 очень
душно
1001.8 977.7
21 21.08 ЮВ 2 4000 м дым ясно +28.5 +22.7 71 +38 +38 очень
душно
1002.3 978.1
00 22.08 штиль 0 4000 м дым ясно +27.5 +22.4 74 +36 +36 очень
душно
1002.3 978.0
03 22.08 штиль 0 4000 м дым ясно +31.0 +24.6 69 +44 +51 опасность
перегрева
1004.2 980.1 +26.4
06 22.08 СЗ 2 4000 м дым 4/4 1200 м
[Sc diur, vesp]
+34.0 +24.1 56 +46 +57 опасность
перегрева
1003.4 979.6
09 22.08 З 3 4000 м гроза без осадков 6/5 900 м
[Cb cap Ac As]
+35.0 +23.7 52 +46 +52 опасность
перегрева
1002.2 978.5
12 22.08 ЮВ 3 4000 м дым {гроза} 5/3 1200 м
[Cb calv Ac As]
+35.0 +23.7 52 +46 +47 опасность
перегрева
1001.1 977.4 +36.5
15 22.08 ЮВ 2 4000 м дым 3/0
[Ac trans]
+32.0 +23.8 62 +43 +43 опасность
перегрева
1001.1 977.2
18 22.08 штиль 0 4000 м дым 3/0
[Ac trans]
+30.5 +23.3 65 +41 +41 опасность
перегрева
1002.5 978.4

 

Местоположение метеостанции Лахор аэропорт (Пакистан): широта 31.52 долгота 74.40 высота над уровнем моря 216 м.

В архиве по умолчанию представлена погода в Лахор аэропорту за последнюю неделю. Архивные данные за месяц целиком и за предыдущие месяцы, начиная с января 2011 года, Вы можете получить, выбрав интересующий диапазон дат из раскрывающегося списка и нажав кнопку "Ввод!".


*Определитесь, кто Вы:
робот инопланетянин человек

Внимание! Время в таблицах - всемирное. Для получения местного времени необходимо прибавить поправку, которая равна 5 ч.

Смотрите также архив погоды в соседних городах и на ближайших метеорологических станциях:

Погода в Лахоре (Пакистан) (7 км)
Погода в Амритсаре (Пенджаб, Индия) (46 км)
Погода в Касуре (Пакистан) (47 км)
Погода в Гуджранвале (Пакистан) (76 км)
Погода в Наровале (Пакистан) (79 км)
Погода в Хафизабаде (Пакистан) (94 км)
Погода в Сиялкоте (Пакистан) (110 км)
Погода в Гуджрате (Пакистан) (116 км)
Погода в Сиалкот аэропорту (Пакистан) (118 км)
Погода в Окаре (Пакистан) (122 км)

Пояснения к столбцам:

Ветер - указаны скорость ветра в м/с - средняя за 10 мин, порывы в срок и между сроками (в фигурных скобках) и направление, откуда дует ветер: С - северный, СВ - северо-восточный, В - восточный, ЮВ - юго-восточный, Ю - южный, ЮЗ - юго-западный, З - западный, СЗ - северо-западный.
Видимость - горизонтальная дальность видимости в метрах или километрах. При видимости от 1 до 10 км при отсутствии осадков обычно наблюдается дымка, при ухудшении видимости до 1 км и менее - туман. В сухую погоду видимость может ухудшаться дымом, пылью или мглою.
Явления - указаны атмосферные явления, наблюдавшиеся в срок или в последний час перед сроком; фигурными скобками обозначены явления, наблюдавшиеся между сроками (за 1-3 часа до срока); квадратными скобками обозначены град или гололедные отложения с указанием их диаметра в мм.
Облачность - указаны через наклонную черту общая и нижняя облачность в баллах и высота нижней границы облаков в метрах; квадратными скобками обозначены формы облаков: Ci - перистые, Cs - перисто-слоистые, Cc - перисто-кучевые, Ac - высококучевые, As - высокослоистые, Sc - слоисто-кучевые, Ns - слоисто-дождевые, Cu - кучевые, Cb - кучево-дождевые. Подробнее классификацию облаков см. в Атласе облаков (PDF).
T - Температура воздуха - температура, измеренная на высоте 2 м над землей.
Td - Температура точки росы - температура, при понижении до которой содержащийся в воздухе водяной пар достигнет насыщения.
f - Относительная влажность воздуха - влажноcть воздуха, измеренная на высоте 2 м над землей.
Te - Эффективная температура - температура, которую ощущает одетый по сезону человек в тени. Характеристика душности погоды. При расчете учитывается влияние влажности воздуха и скорости ветра на теплоощущения человека.
Tes - Эффективная температура на солнце - температура, которую ощущает человек, с поправкой на солнечный нагрев. Характеристика знойности погоды. Зависит от высоты солнца над горизонтом, облачности и скорости ветра. Ночью, в пасмурную погоду, а также при ветре 12 м/с и более поправка равна нулю.
P - Атмосферное давление - приведенное к уровню моря атмосферное давление.
Po - Атмосферное давление - измеренное на уровне метеостанции атмосферное давление.
Tmin - Минимальная температура - минимум температуры воздуха на высоте 2 м над землей.
Tmax - Максимальная температура - максимум температуры воздуха на высоте 2 м над землей.
R - Количество осадков - Количество выпавших осадков за период времени, мм. При наведении курсора мыши на число - период времени, за который выпало указанное количество осадков.
R24 - Количество осадков - Количество выпавших осадков за 24 часа, мм.
S - Снежный покров - Высота снежного покрова, см. При наведении курсора мыши на число - состояние снежного покрова и степень покрытия местности в баллах.